Theta_e
312 313 313 313 312 311 310 310 309 309 308 306 306 306 307 308 309 311 313 316 318 318 318 317 317 317 316 316 316 317 315 315 315 315 315 315 312 308 307 306 308 308 309 310 310 312 313 316 313 310 317 314 311 313 313 317 321 327 330 325 323 325 324 323 324 321 316 315 316 314 310 310 311 310 308 307 308 309 308 308 307 307 308 307 308 308 309 309
313 313 313 313 312 311 310 310 310 309 308 307 306 306 306 307 308 310 312 315 316 317 317 316 318 317 317 317 316 317 316 315 315 314 314 313 310 308 307 306 309 309 309 310 310 311 314 317 310 311 323 317 310 314 315 314 317 329 327 320 328 330 324 321 323 322 316 315 316 314 310 309 311 309 307 309 311 309 309 309 308 309 309 308 306 306 307 307
312 313 313 313 311 310 310 310 311 310 310 308 307 306 306 306 307 309 310 313 314 316 315 313 316 317 317 317 316 318 315 316 317 314 313 312 309 307 307 308 310 310 309 310 310 310 312 313 307 312 323 318 313 316 318 315 315 324 321 322 334 328 321 319 319 318 315 314 314 314 311 309 310 307 307 309 310 310 310 311 311 312 313 312 310 307 304 305
313 313 312 312 311 310 309 310 311 311 311 309 308 307 306 306 307 308 309 311 312 315 315 313 314 316 317 316 317 317 315 319 318 313 312 310 308 308 308 309 310 310 309 310 310 310 311 310 309 316 321 319 321 319 314 315 315 316 317 326 331 319 316 319 318 317 315 312 312 313 311 310 309 306 307 308 310 312 312 312 312 312 312 311 313 309 303 306
313 313 313 312 310 309 309 309 311 311 312 310 309 307 306 306 306 308 308 310 311 314 316 313 313 316 316 316 317 315 316 321 317 311 311 308 307 308 309 310 310 309 309 310 309 309 310 310 313 322 321 318 324 322 314 312 313 314 317 323 322 315 314 316 317 318 315 312 311 312 311 309 308 307 308 308 310 313 313 313 312 311 311 309 309 308 306 312
313 313 313 312 310 308 308 309 310 312 312 311 310 308 307 306 306 307 308 310 310 313 316 313 314 317 316 317 316 315 319 319 314 313 311 309 309 309 310 310 310 309 309 311 309 310 312 313 317 321 321 320 318 318 315 312 310 314 319 317 316 314 314 315 314 314 312 310 310 311 310 307 307 308 308 308 310 311 312 311 310 309 308 305 304 306 308 312
313 313 313 311 309 307 307 309 310 312 312 311 310 308 307 307 307 307 307 309 309 312 315 313 316 317 316 317 314 318 325 317 312 313 312 311 312 310 311 311 310 309 309 310 309 312 316 318 319 317 319 322 317 315 314 312 310 312 318 318 315 313 312 313 311 310 309 308 309 308 308 308 309 310 307 308 309 310 310 309 307 306 304 303 305 306 307 309
313 313 312 310 308 306 307 309 310 311 311 311 310 308 308 307 307 307 307 308 309 312 313 313 317 317 317 317 317 325 326 317 312 313 313 314 313 311 312 313 312 311 310 310 309 311 315 316 316 314 318 319 314 314 311 311 313 313 318 318 314 312 310 309 309 309 308 308 308 305 308 312 311 309 308 309 310 310 309 308 307 306 307 310 310 307 306 308
314 313 312 309 307 306 307 309 310 310 310 310 309 308 307 307 307 307 308 308 308 312 312 315 317 317 317 316 321 328 319 314 312 312 313 316 314 313 314 313 312 311 310 310 309 310 313 315 314 314 317 316 311 313 311 313 316 313 316 316 312 311 309 307 308 309 308 307 306 306 311 315 310 308 310 312 313 312 308 309 310 309 313 315 312 309 307 308
314 312 311 308 306 305 307 309 310 309 310 309 309 309 307 307 307 307 308 307 309 311 312 316 317 317 316 316 323 325 314 313 312 311 314 315 315 314 314 312 311 312 310 310 311 311 313 314 312 312 314 313 311 311 311 312 313 311 312 312 310 310 308 307 310 309 309 309 307 309 313 314 310 308 312 314 314 312 309 310 311 311 314 314 312 309 308 309
313 312 310 307 305 305 306 308 309 309 310 309 309 309 307 307 307 307 307 307 309 311 313 316 317 316 315 317 324 320 312 313 312 312 315 314 315 315 313 311 311 312 310 309 310 311 311 309 307 311 313 312 311 312 311 310 309 308 309 310 311 312 310 310 312 311 311 311 308 309 310 310 308 309 314 314 311 311 311 311 310 311 312 312 312 310 309 309
313 311 309 305 304 304 306 308 308 309 308 309 309 309 308 308 307 308 308 308 310 312 313 316 317 315 315 317 320 316 313 313 313 314 315 314 315 314 312 311 310 311 310 310 310 310 311 308 308 314 314 311 314 314 311 309 308 308 308 310 315 316 314 312 312 312 313 311 308 308 309 310 311 314 317 314 310 312 312 311 310 311 310 310 310 308 308 307
313 311 307 305 304 304 306 307 307 307 308 308 308 309 309 307 307 308 307 309 311 312 314 317 316 315 318 320 315 312 312 313 314 314 314 314 314 313 312 310 310 310 310 310 310 310 310 309 309 312 311 311 315 311 308 308 308 309 307 310 316 316 317 315 311 313 313 312 310 310 313 314 315 316 317 314 312 312 311 310 310 311 310 309 308 307 306 305
313 310 306 304 303 304 305 306 307 306 306 307 308 309 309 308 308 308 308 311 311 313 317 317 315 316 320 318 313 312 312 312 314 314 313 313 312 313 311 310 309 309 310 311 310 309 309 309 308 308 308 309 312 308 308 312 315 314 310 315 319 316 319 318 312 313 313 312 312 313 315 315 314 314 315 314 311 311 311 310 309 309 309 309 308 306 306 305
312 310 306 303 303 303 305 306 306 305 306 307 307 309 309 308 308 308 310 312 311 315 318 316 314 317 321 317 312 312 312 313 315 314 313 312 311 312 311 310 310 309 310 310 309 308 308 308 309 310 309 307 311 313 315 322 324 320 313 319 321 314 316 314 312 314 311 311 313 313 316 314 312 313 313 312 311 311 311 310 309 308 308 307 306 306 306 306
312 309 305 303 302 303 304 306 305 304 306 306 307 309 309 308 308 309 312 312 313 317 317 316 314 316 322 317 312 313 314 314 314 313 312 311 310 311 310 310 309 308 309 309 309 307 307 310 310 309 310 311 315 318 323 329 330 323 317 318 319 315 314 312 312 313 309 311 312 312 313 313 312 312 311 311 311 311 309 309 308 307 307 306 305 305 306 305
312 309 305 303 302 303 304 305 304 304 306 306 306 308 310 309 308 311 312 312 315 317 313 313 313 314 317 315 314 316 314 312 312 313 312 310 309 310 309 310 309 306 307 308 308 308 306 309 309 309 313 316 316 317 323 327 325 324 321 318 318 315 313 313 313 312 310 311 311 310 311 311 312 311 310 310 311 310 308 307 307 307 306 305 305 305 305 304
312 308 305 303 302 302 304 304 303 304 306 306 306 308 310 308 310 312 312 312 316 318 315 313 314 316 316 314 315 315 312 311 312 312 311 309 308 309 308 309 307 306 311 311 309 313 311 312 316 319 319 315 313 316 319 321 319 319 319 317 316 314 313 314 314 312 310 310 311 312 312 311 311 310 310 310 310 309 307 306 307 306 305 305 305 304 304 303
311 308 304 303 302 302 303 303 303 304 306 306 306 308 308 308 313 313 309 311 317 319 317 314 315 317 316 315 314 312 311 311 312 310 309 309 308 308 307 307 308 311 321 320 313 316 314 314 321 322 318 315 314 312 313 318 317 315 315 314 314 314 312 312 313 313 310 310 312 313 312 310 310 310 310 309 308 307 307 306 306 305 305 305 304 303 303 302
312 309 304 303 302 302 303 302 302 304 306 306 306 307 309 314 321 320 313 314 314 312 316 317 315 317 317 316 314 311 311 311 311 310 308 308 308 308 306 309 316 317 319 319 314 313 311 312 321 321 315 314 313 311 311 314 313 313 314 314 314 314 312 311 312 312 311 311 312 312 310 309 310 310 309 308 306 307 307 307 305 305 305 304 303 301 301 300
312 309 305 303 301 302 302 302 302 305 307 306 305 309 310 311 315 316 315 318 312 305 314 317 311 315 315 314 313 309 311 313 310 309 308 308 308 308 309 314 320 317 316 316 314 313 312 309 318 322 316 311 311 311 311 312 312 314 315 314 315 314 312 311 311 312 311 310 310 310 309 309 309 309 308 307 306 307 307 306 305 305 304 303 301 300 299 299
313 310 306 303 301 302 301 301 304 307 307 305 309 310 309 309 310 308 310 320 316 306 311 312 310 317 314 310 310 307 312 316 312 311 308 308 310 310 313 317 318 316 317 320 317 315 317 315 317 317 312 310 313 313 313 313 314 315 316 315 316 314 313 312 311 311 310 309 310 309 310 309 309 308 306 306 307 307 306 306 307 305 303 302 300 299 298 298
313 310 306 303 301 301 301 302 306 307 307 307 312 311 310 311 310 308 309 318 321 313 314 316 318 325 319 311 309 308 313 315 312 312 308 309 313 312 313 318 318 316 316 318 316 312 314 317 315 311 310 311 314 316 315 315 316 317 316 316 316 314 312 311 310 309 307 309 311 311 310 309 307 306 305 306 307 306 305 306 306 305 305 302 300 298 297 297
313 309 307 304 301 301 300 302 307 308 308 307 310 311 311 312 311 310 312 317 321 319 315 314 316 322 320 311 308 310 314 312 310 309 307 309 312 310 312 313 313 315 314 313 313 311 312 312 310 312 315 313 312 316 316 314 317 321 318 315 314 313 311 310 309 308 306 308 311 309 307 306 305 305 305 306 306 304 304 304 301 302 304 302 298 297 297 298
312 309 307 304 301 300 300 305 309 308 308 307 308 310 309 311 311 309 313 316 318 319 313 310 314 317 314 309 308 311 312 311 310 307 306 308 309 310 310 308 309 313 313 312 311 312 312 309 308 313 317 315 314 315 314 312 315 320 319 313 310 311 312 310 310 308 305 306 309 308 305 305 304 305 306 306 305 304 303 301 297 297 300 300 297 297 298 298
311 309 307 303 301 300 300 308 309 306 310 310 309 310 309 311 311 308 312 319 321 321 316 313 314 313 310 309 310 311 312 310 308 304 305 306 306 307 307 306 309 310 311 312 310 310 310 309 310 313 315 316 317 316 313 312 314 316 313 308 308 310 311 311 310 308 306 305 307 308 308 307 305 306 309 308 305 303 300 298 296 295 298 299 297 297 298 297
310 308 306 303 301 299 301 307 307 307 314 314 310 309 309 312 310 307 314 326 324 317 316 315 312 312 311 308 307 309 311 309 306 304 304 304 304 305 306 309 309 307 308 310 310 311 311 313 315 314 314 315 314 314 311 309 314 315 309 307 310 311 310 310 309 308 308 307 307 310 310 308 307 308 309 307 304 301 297 295 294 293 296 298 297 297 298 297
309 307 304 302 300 300 302 304 306 308 313 313 308 308 311 311 308 311 322 330 323 314 314 314 311 312 312 307 306 310 310 308 307 306 302 302 305 306 308 310 308 307 308 307 309 312 310 310 313 311 313 314 310 310 309 309 314 315 309 307 309 310 309 309 310 309 308 307 307 309 309 308 309 308 306 305 302 298 295 293 293 293 294 296 296 297 298 297
308 305 303 301 299 301 303 303 304 308 311 309 306 309 311 308 308 321 330 326 319 314 312 312 311 313 314 310 310 312 310 308 310 307 302 302 304 306 308 308 307 309 307 306 310 313 308 306 308 308 310 312 310 308 309 310 311 310 308 307 307 309 310 309 310 309 308 308 307 308 311 308 305 303 302 304 299 295 294 293 292 292 293 295 296 296 296 295
306 304 302 299 300 302 303 304 305 309 310 307 309 310 308 309 316 330 334 324 317 313 311 313 314 314 315 313 313 311 309 311 311 307 304 304 305 307 305 303 308 313 311 310 312 312 310 306 307 310 309 309 310 307 306 306 304 305 308 308 307 309 312 312 311 309 309 310 306 304 306 302 300 301 301 301 297 293 292 292 292 292 293 294 294 294 294 294
305 303 301 299 301 302 303 307 307 306 305 307 311 308 308 316 323 331 333 323 315 314 314 315 317 319 317 313 314 313 312 312 310 308 307 308 310 312 309 307 311 317 319 318 316 313 313 310 308 310 308 308 310 307 306 305 302 301 307 309 306 307 309 308 307 309 309 307 302 300 301 298 297 300 300 297 293 292 292 291 292 292 293 293 293 293 293 293
303 302 301 299 301 302 303 306 306 304 306 309 308 308 316 324 325 330 331 323 318 318 316 314 316 321 317 310 312 313 312 311 308 308 308 311 314 311 310 311 311 314 319 319 315 315 316 312 307 308 308 306 310 311 308 306 303 304 308 309 307 306 306 302 300 304 305 303 299 297 298 297 297 300 301 297 292 292 292 292 292 292 292 292 292 292 293 293
302 301 299 299 301 303 304 306 306 306 308 308 309 315 326 329 327 330 327 325 322 315 314 316 315 316 313 311 313 310 307 309 308 305 304 308 313 308 305 306 307 309 313 312 311 313 313 311 307 308 309 305 308 311 306 304 304 305 307 308 307 306 302 296 296 298 300 299 297 295 297 299 299 301 300 296 292 292 292 292 293 293 292 292 292 292 293 293
301 300 299 301 303 304 306 306 308 309 307 307 310 315 322 325 328 327 323 325 321 313 316 317 313 311 310 310 312 308 307 309 306 305 307 308 312 311 308 307 306 309 311 309 309 309 308 309 307 306 308 307 306 306 303 303 303 303 307 308 307 308 302 296 296 298 297 296 296 296 299 301 301 300 296 292 292 292 292 293 293 292 292 292 292 292 293 293
300 301 302 304 304 306 307 306 309 310 307 308 311 312 317 323 326 323 322 322 317 314 315 312 310 311 312 313 311 306 305 307 304 305 309 308 309 313 312 308 305 307 310 308 310 310 307 307 306 302 304 304 300 301 303 303 302 301 303 302 302 307 304 299 298 298 296 296 297 297 299 299 298 296 293 291 292 292 292 293 292 291 292 291 292 292 292 292
300 303 305 305 306 308 308 308 311 311 309 310 308 308 314 321 324 323 322 316 313 315 313 310 311 312 315 316 311 306 304 304 305 303 306 308 309 311 309 305 303 304 308 310 313 314 310 309 307 302 302 300 296 298 300 301 303 302 298 297 300 304 302 300 301 299 296 295 296 296 295 294 293 294 293 291 292 292 291 292 291 291 291 291 292 292 291 291
301 305 307 306 308 308 308 310 311 309 311 310 306 309 312 314 318 320 319 313 311 315 313 313 314 311 313 315 312 311 307 304 304 303 305 307 306 308 306 304 303 302 304 308 310 311 309 308 306 304 304 301 297 298 298 297 301 301 297 296 298 299 299 299 298 298 296 294 294 293 293 292 292 293 293 291 291 291 291 291 291 291 291 291 291 291 290 290
304 307 307 307 309 309 309 310 308 308 312 308 305 311 312 309 309 310 315 315 312 313 313 314 315 311 312 313 311 310 307 305 307 306 307 307 305 307 306 305 302 300 300 303 306 308 307 305 303 302 303 301 299 301 299 297 298 298 298 297 296 296 297 297 295 294 294 293 293 293 292 292 292 292 291 291 291 291 291 291 291 291 291 290 290 290 290 290
306 306 306 308 308 309 311 311 310 310 311 307 306 311 311 310 311 311 313 315 313 314 316 315 314 311 312 312 311 309 305 305 308 306 305 307 306 305 304 305 303 300 301 302 304 306 305 306 304 299 298 299 300 300 299 300 299 297 297 297 297 298 295 294 294 294 294 293 293 293 292 292 292 291 291 291 291 291 291 290 290 290 290 290 289 289 289 290
305 302 306 309 307 310 311 311 310 311 311 309 308 311 311 310 313 313 313 313 312 313 315 317 314 310 311 310 308 309 306 304 307 307 305 305 307 304 301 302 301 299 301 301 301 303 304 306 305 299 297 298 299 300 299 299 298 296 295 294 295 296 294 293 293 293 294 294 293 292 292 292 292 291 291 291 291 291 290 291 290 290 289 289 289 289 289 290
304 300 307 307 307 311 311 310 311 313 315 313 309 311 312 311 314 315 312 310 312 312 311 314 315 311 313 311 308 308 307 306 307 307 305 304 306 305 300 300 299 298 299 299 299 301 301 303 304 300 297 297 298 300 299 298 296 295 294 294 294 295 295 294 293 292 293 293 293 292 292 291 291 291 292 291 291 291 290 290 290 289 289 289 289 289 289 290
302 302 308 306 308 311 311 311 312 313 317 314 309 310 312 313 315 315 311 308 310 311 309 311 312 311 312 311 309 308 308 309 307 306 307 305 305 304 299 299 300 298 297 297 298 300 300 302 302 299 297 297 296 296 297 297 295 293 294 294 294 294 294 295 293 292 293 292 292 293 292 293 292 292 293 291 291 290 290 290 289 289 289 289 289 289 289 290
305 308 308 306 310 310 309 312 312 311 317 314 309 310 310 312 315 313 311 310 309 310 310 310 309 309 311 309 308 307 307 308 308 306 307 305 302 300 298 299 299 297 296 296 296 298 299 301 301 299 296 294 292 292 293 294 293 292 293 294 294 293 294 294 293 292 293 292 292 292 292 292 292 292 292 291 290 290 289 289 288 288 288 289 289 289 289 290
311 312 310 308 310 308 307 311 313 313 315 311 310 311 308 309 312 311 311 312 310 309 310 310 307 308 309 307 306 307 306 306 306 306 305 303 301 298 297 298 296 295 297 297 298 299 299 299 300 297 294 292 291 291 292 292 292 293 293 293 293 293 293 293 293 292 292 292 292 291 291 290 290 291 291 290 289 289 288 289 288 288 289 289 289 289 290 290
307 308 309 308 308 307 307 309 311 312 313 311 312 313 309 307 309 310 311 311 309 309 309 308 306 306 306 304 304 305 305 304 304 304 303 301 299 296 296 297 295 295 299 299 299 301 300 299 298 296 295 293 292 293 293 293 293 293 292 292 292 293 292 292 293 293 292 291 291 291 290 290 290 290 289 289 289 288 288 288 288 288 289 289 289 290 290 290
305 304 307 306 306 308 308 307 309 311 313 312 311 310 310 309 307 306 307 308 307 306 306 305 303 304 304 303 303 304 304 303 302 302 302 300 298 296 297 297 295 297 299 298 298 301 300 298 296 294 295 293 292 291 292 293 293 292 293 292 292 292 292 292 293 292 292 291 290 290 290 289 289 289 289 288 288 288 288 288 288 289 289 289 290 290 290 289
305 305 308 307 308 310 309 307 308 309 309 310 310 310 310 309 307 305 305 305 304 303 303 302 302 304 303 302 303 303 303 302 301 301 301 300 298 297 296 296 295 296 297 297 298 300 298 297 296 295 294 292 292 291 291 292 293 292 293 292 292 292 292 292 292 291 291 291 290 290 289 289 289 288 288 288 288 288 288 288 288 289 289 289 289 289 289 288
304 306 308 309 310 312 310 308 308 307 307 308 308 309 309 307 307 306 304 303 302 301 302 302 302 303 303 303 303 302 301 300 299 298 298 299 298 296 295 295 295 297 297 295 297 298 297 297 296 294 293 292 292 292 292 292 292 292 293 292 292 292 292 292 292 290 290 291 290 290 289 289 288 288 288 288 288 288 288 288 289 289 289 289 288 288 287 287
306 306 308 307 308 312 312 310 308 307 307 307 307 308 308 307 307 306 304 303 301 301 303 302 302 302 302 302 302 301 300 300 300 299 297 298 297 295 295 295 294 295 296 294 295 296 296 297 295 293 293 293 292 293 292 292 292 292 292 292 291 291 291 291 291 290 290 290 290 289 288 288 288 288 288 288 288 288 288 289 289 288 288 287 286 286 286 286
306 305 307 307 308 309 310 309 308 307 307 307 307 307 307 307 306 305 305 304 302 302 301 301 303 303 300 301 302 300 299 300 302 301 297 297 297 295 296 296 293 294 295 294 294 295 296 296 294 293 294 294 293 293 292 292 293 293 292 291 291 290 290 290 290 289 289 289 288 288 288 288 288 288 288 288 288 289 289 289 288 287 286 285 285 285 284 283
304 303 306 309 309 307 307 307 307 308 308 307 307 307 307 306 306 305 305 304 304 304 301 300 303 302 299 299 300 300 301 301 303 302 298 297 298 296 297 297 294 294 294 293 294 295 295 295 294 295 295 294 293 292 292 291 292 292 291 290 290 290 290 290 289 289 289 288 288 288 288 288 288 288 288 288 289 289 288 288 286 285 285 285 284 284 282 281
302 302 305 309 310 308 306 306 307 307 308 308 307 307 307 306 305 305 305 304 303 303 302 301 302 300 298 298 298 299 301 300 300 299 296 296 297 296 297 297 295 294 294 293 294 294 294 295 296 295 295 294 292 291 291 290 290 292 293 291 291 291 290 289 288 288 289 289 288 288 288 288 288 288 288 289 288 288 287 286 285 284 284 284 283 281 280 279
Wind_Speed
17 18 20 22 24 26 27 29 30 32 33 33 34 33 34 33 32 31 30 26 24 22 20 17 15 16 17 21 19 8 8 15 21 24 17 8 10 12 13 15 15 16 14 11 12 6 4 8 11 11 4 2 4 1 2 2 2 3 3 3 0 2 3 5 6 5 2 5 5 4 1 3 10 4 1 3 1 5 6 7 5 5 9 12 16 17 19 21
17 18 20 22 24 26 28 29 30 32 32 32 33 33 34 33 32 31 30 27 25 24 22 20 18 17 18 20 17 6 3 8 19 20 13 11 12 12 13 14 15 15 14 11 10 8 5 5 7 8 5 2 2 1 2 2 3 3 3 1 2 5 5 5 6 5 2 5 8 8 1 2 9 5 2 4 6 5 8 11 3 5 11 10 15 20 22 22
17 19 21 23 24 26 27 29 30 31 31 32 32 33 34 33 32 31 31 30 27 25 23 23 20 17 19 19 13 4 4 4 12 10 11 14 12 12 14 14 15 14 13 10 7 6 4 2 4 6 4 2 2 2 3 2 1 1 3 0 5 5 4 4 5 5 5 4 8 10 3 2 10 5 1 3 8 8 8 10 4 7 11 8 8 10 13 14
17 19 21 22 24 26 27 28 29 30 30 31 31 32 33 33 33 32 33 32 29 26 23 26 22 18 19 15 9 1 5 5 6 6 12 14 12 13 14 14 15 14 12 8 5 5 4 4 5 6 3 2 4 3 3 3 1 1 3 3 5 3 2 5 6 6 5 2 4 8 6 8 9 2 1 1 7 11 7 6 5 7 11 11 11 8 8 8
16 19 21 22 24 25 26 27 28 29 29 30 30 30 31 32 33 32 33 32 30 26 25 28 23 19 16 10 7 2 5 5 3 7 13 13 13 13 14 15 14 13 10 7 5 4 5 6 7 6 4 2 4 4 3 2 2 1 3 5 4 3 3 4 5 5 3 2 4 7 9 9 6 2 3 3 2 8 8 6 5 7 11 11 11 10 8 7
16 18 20 22 24 24 26 26 27 28 29 29 29 29 29 31 32 32 32 31 31 27 26 29 23 16 10 8 9 4 6 3 4 9 13 13 13 13 14 14 13 13 9 7 6 5 5 6 6 4 3 3 3 2 2 3 3 1 4 4 3 4 5 3 4 5 4 1 5 6 7 5 6 8 3 7 8 11 11 11 8 9 11 10 10 8 8 9
16 18 20 22 23 24 25 26 27 27 28 29 29 28 28 30 31 32 32 31 31 27 27 28 21 12 6 8 12 10 7 2 6 10 11 13 13 12 13 11 12 11 7 9 8 4 4 7 5 3 3 3 1 1 3 5 3 1 3 6 5 5 7 5 1 3 3 4 9 4 6 8 8 8 2 4 11 13 14 12 8 8 10 8 7 7 7 10
16 18 20 22 23 24 25 26 27 27 28 28 28 28 27 29 29 31 31 30 30 27 27 26 17 9 4 4 6 7 5 1 7 10 9 12 11 11 11 9 11 10 8 11 7 2 3 4 2 2 2 2 2 1 2 4 3 3 5 6 5 4 6 4 4 5 5 7 7 2 5 12 11 4 4 8 11 11 11 9 7 7 9 8 7 9 7 8
16 18 20 21 23 24 25 26 27 27 28 28 29 28 28 28 28 30 29 30 30 26 26 22 12 7 4 3 6 5 2 4 8 8 9 13 10 10 9 8 11 10 9 8 6 4 2 0 2 2 1 0 2 1 2 2 2 4 5 5 6 12 9 3 3 5 5 4 4 3 5 13 10 4 5 10 10 7 5 6 7 8 10 10 9 10 8 9
15 18 20 21 23 24 25 26 27 28 28 29 29 27 28 29 28 28 28 30 28 24 25 17 7 6 4 3 6 5 2 5 7 7 11 13 9 8 8 10 11 9 7 6 6 5 1 2 3 2 3 2 1 1 0 1 1 3 4 7 8 14 12 3 2 3 4 3 7 7 6 12 7 4 4 7 6 5 7 7 8 8 9 10 9 9 9 9
15 18 19 21 23 24 25 26 27 29 29 29 28 27 28 28 28 26 27 29 25 23 22 11 4 7 8 7 6 4 2 5 6 9 13 12 10 9 9 10 9 8 6 5 4 2 1 2 5 3 1 1 1 0 1 3 1 1 3 8 9 12 10 2 2 2 4 1 8 8 6 8 5 1 6 7 5 6 9 9 8 7 7 8 9 9 8 8
15 17 19 21 22 24 25 26 28 29 29 30 28 27 28 28 28 25 27 26 22 23 18 6 2 4 8 9 5 3 2 5 8 12 14 12 11 10 9 11 9 8 5 4 2 0 2 0 4 3 0 1 0 1 1 3 1 2 2 4 8 11 10 4 3 2 5 1 5 5 2 4 2 5 8 6 5 7 9 10 8 6 6 7 8 7 7 8
15 17 20 21 22 24 25 26 28 28 29 29 27 27 27 28 27 24 26 22 20 23 12 4 4 2 4 5 1 1 2 6 11 12 13 13 10 7 9 12 8 7 5 4 2 1 3 1 4 3 2 3 1 1 2 1 2 2 2 1 4 9 8 6 4 4 7 3 1 3 3 3 6 9 9 4 7 11 13 13 11 8 6 6 6 5 6 8
15 17 20 21 23 24 25 26 27 28 29 28 27 27 26 26 25 25 24 18 20 20 6 4 6 0 3 2 2 2 2 5 11 13 14 14 10 5 9 12 7 6 6 5 3 2 3 2 5 4 2 2 1 2 1 4 4 2 2 1 3 4 6 9 7 6 8 4 6 9 5 5 7 9 7 2 7 10 14 17 15 12 10 7 7 7 7 7
15 17 20 21 23 24 25 26 27 28 28 27 26 26 26 24 23 24 18 16 21 14 2 4 6 2 4 2 1 2 3 5 11 16 15 15 12 6 9 10 5 6 6 4 4 5 5 4 5 4 1 2 4 4 3 4 4 2 3 3 3 2 6 11 7 3 5 5 7 10 6 8 11 10 4 3 6 6 10 15 15 13 11 10 9 8 8 7
15 17 19 22 23 24 25 26 27 28 27 27 26 26 23 19 22 20 13 17 18 7 3 5 4 4 4 1 1 2 4 5 12 14 12 14 11 6 11 8 4 6 5 4 4 5 6 4 4 2 1 3 4 4 4 4 4 3 4 4 5 4 7 9 4 3 5 6 6 5 3 9 13 12 9 9 7 5 6 10 14 12 10 9 8 7 7 7
16 17 19 22 23 24 25 25 27 27 27 26 25 26 20 16 21 13 9 19 13 3 6 6 4 4 3 2 2 3 5 8 12 10 10 14 10 7 10 5 3 5 5 4 3 2 4 4 1 1 3 4 1 3 5 5 4 4 3 3 5 4 6 8 5 2 7 7 7 6 5 11 15 14 15 12 9 11 12 12 11 9 9 7 7 7 7 8
16 18 20 21 23 24 25 25 26 27 26 25 24 25 17 15 17 6 11 22 10 2 5 6 6 4 1 3 2 4 10 11 9 7 10 14 9 7 7 3 3 4 4 3 2 3 4 3 2 1 4 4 4 6 4 1 3 4 4 4 5 4 4 6 8 6 8 5 6 10 10 15 19 12 12 11 8 10 14 12 9 8 8 7 8 8 8 10
17 18 20 21 22 24 24 25 26 25 25 24 25 21 12 12 10 3 15 22 7 2 2 3 5 1 3 4 4 9 11 6 4 8 12 13 8 5 3 4 4 5 5 3 4 5 3 4 5 4 5 6 4 3 2 5 6 6 6 4 5 7 5 5 7 5 9 9 8 10 14 21 23 15 13 14 10 8 10 8 8 7 7 7 8 8 9 11
17 19 20 21 22 22 23 24 24 24 23 25 25 17 7 9 6 3 15 14 3 2 1 3 1 2 3 3 6 10 6 1 1 8 14 14 8 3 2 6 6 7 6 2 5 3 3 5 3 1 3 6 4 4 4 4 5 4 5 3 5 9 8 5 4 4 7 8 10 12 18 25 23 16 15 15 12 9 8 7 7 6 7 7 9 9 10 11
17 19 20 21 21 21 22 23 23 21 20 22 20 10 3 3 3 2 8 7 1 2 0 4 4 4 5 4 6 7 3 1 2 10 17 13 6 2 4 6 7 6 4 2 5 3 5 5 2 5 5 5 3 4 3 1 2 3 4 5 5 6 9 9 3 3 7 8 11 14 19 28 22 15 16 12 10 8 6 8 6 7 8 7 9 11 10 9
18 19 20 21 21 20 21 21 20 17 16 17 15 10 4 3 2 2 2 3 5 1 1 3 2 4 6 4 4 3 4 4 3 9 16 12 5 3 4 5 6 2 5 3 3 5 6 3 7 7 4 1 3 4 4 2 2 4 3 4 6 4 8 9 3 3 5 4 11 14 15 26 18 12 15 7 5 4 8 8 6 8 9 9 10 10 10 10
18 19 20 21 20 19 19 18 16 16 15 15 14 9 3 1 1 2 2 1 6 4 1 1 1 4 4 1 1 1 4 4 1 7 15 11 5 3 3 4 3 1 4 5 4 4 4 5 6 3 4 4 4 4 5 4 2 3 4 3 5 5 6 7 9 13 8 3 7 10 10 18 12 7 12 4 8 6 9 9 9 9 9 10 8 8 10 12
18 19 20 21 20 18 17 15 12 12 13 14 14 9 2 1 3 3 2 1 3 5 2 2 2 2 2 0 1 2 3 2 0 5 12 8 2 2 4 3 2 2 1 1 2 0 6 8 2 4 5 5 3 5 5 4 4 3 3 2 4 7 6 7 10 16 15 2 3 5 8 13 9 7 12 6 10 10 9 11 14 11 8 7 7 9 10 11
18 19 19 21 20 17 16 12 8 10 9 8 9 8 5 2 4 6 2 2 2 5 2 2 2 2 3 0 2 1 3 2 1 3 7 6 2 1 3 1 1 1 3 2 2 2 6 7 1 5 6 7 4 4 2 1 4 4 2 0 4 7 7 9 11 12 13 7 3 6 9 13 9 9 12 7 9 9 8 12 15 12 9 8 8 10 10 11
19 19 20 21 19 16 13 7 6 9 5 4 5 7 7 5 3 7 2 4 2 4 1 1 1 0 2 2 3 0 3 1 1 2 5 5 1 2 2 1 2 0 4 1 2 2 3 3 3 5 5 7 6 3 4 2 1 3 2 1 2 5 7 10 12 8 7 10 2 7 3 12 11 6 7 4 9 8 8 12 13 12 8 6 6 7 8 10
19 19 20 20 18 15 8 2 4 6 3 2 5 6 9 6 4 7 1 5 2 2 0 1 0 1 1 2 1 1 0 2 1 2 4 3 3 1 1 3 1 1 1 2 3 2 3 4 6 6 6 6 4 2 4 1 3 2 1 2 4 6 9 9 9 6 5 9 6 4 5 8 8 3 3 5 7 8 10 12 12 12 8 5 4 5 7 10
19 20 19 18 17 13 5 2 4 2 1 4 5 7 8 2 6 5 4 3 2 0 1 1 0 1 3 3 3 3 2 2 2 2 4 4 3 2 2 2 3 3 1 3 3 4 2 2 5 5 6 3 1 1 4 0 2 5 3 2 3 5 8 6 6 7 4 5 5 2 4 3 6 3 5 7 6 8 11 12 12 13 10 7 6 7 9 11
19 20 19 16 14 10 6 4 2 1 2 5 6 7 4 2 4 4 5 1 2 1 1 1 1 1 4 4 5 4 2 3 1 3 5 4 4 4 1 2 4 1 1 3 4 5 1 1 3 5 4 1 2 2 2 4 2 6 4 3 3 4 6 4 5 6 4 4 3 3 1 1 8 6 5 5 6 7 9 9 10 12 10 8 9 11 13 14
19 19 18 15 11 7 6 5 1 1 4 5 6 5 1 3 3 5 2 3 1 0 1 1 1 2 5 4 5 5 3 2 3 4 4 2 5 6 2 1 4 4 1 3 1 5 4 1 2 4 2 4 3 1 2 5 1 4 4 5 5 4 3 2 2 2 3 2 3 3 3 3 7 5 3 3 5 5 6 8 12 14 13 11 12 15 16 16
18 18 17 13 8 5 5 3 2 4 6 5 4 2 2 2 4 4 3 4 0 2 1 1 2 3 6 3 2 4 3 3 4 5 4 3 5 6 3 2 4 4 3 4 2 6 6 4 2 1 1 2 5 3 2 3 4 5 5 4 5 5 3 1 2 2 2 4 3 1 6 5 7 3 5 4 5 7 7 10 13 14 13 12 15 18 17 16
17 17 15 11 7 4 3 2 3 5 5 4 3 2 3 4 2 3 4 3 2 2 0 0 2 2 4 2 2 2 2 2 2 4 2 2 4 4 4 1 1 3 4 2 2 6 5 2 1 1 1 1 4 2 4 5 7 7 4 3 4 5 4 3 3 1 4 7 2 3 8 5 9 5 4 5 7 9 7 10 13 14 16 18 21 22 19 17
16 15 13 10 6 4 3 3 2 4 3 1 2 4 6 3 3 4 2 3 1 1 1 1 1 1 2 1 2 1 0 2 1 4 1 2 4 2 2 0 2 0 2 2 1 3 4 3 2 2 2 2 4 4 2 4 4 4 2 2 3 2 5 6 5 3 4 9 8 6 4 5 6 2 3 5 3 6 10 14 15 16 20 22 22 20 18 17
14 12 10 8 6 5 3 1 2 4 1 1 4 4 3 2 5 3 2 4 3 2 2 1 2 2 0 1 3 1 0 1 1 3 1 2 3 1 1 3 2 1 2 0 1 2 1 3 1 1 1 2 3 4 4 3 3 1 2 3 3 2 1 4 4 3 5 12 15 10 4 3 2 1 5 3 2 9 16 16 13 14 17 18 17 16 16 16
12 10 8 7 5 5 3 1 4 4 2 2 5 2 3 4 4 2 3 4 2 2 2 1 1 2 3 2 2 1 1 1 1 2 2 2 1 3 2 2 3 1 3 0 2 2 1 4 2 2 1 4 2 2 4 5 3 2 2 3 1 3 4 3 3 3 4 10 12 6 4 5 3 1 1 6 10 15 16 11 10 14 16 15 14 13 14 15
9 7 6 7 6 5 3 2 4 4 3 5 4 3 5 5 3 3 3 2 1 2 1 4 1 1 4 2 2 1 1 1 1 1 1 0 2 3 3 2 1 0 2 2 1 1 1 3 3 2 2 3 1 2 2 3 2 0 2 1 4 3 5 1 4 3 2 6 6 5 8 8 5 5 7 12 16 17 14 10 12 17 17 15 14 13 14 14
7 5 5 7 6 6 4 4 5 5 4 6 3 6 4 4 5 4 3 2 1 3 3 3 2 3 3 2 1 1 0 1 1 1 1 1 1 3 4 2 2 2 2 2 1 2 2 3 6 4 1 0 2 3 6 4 3 3 1 3 3 0 3 4 1 3 3 5 5 6 13 13 7 4 7 14 17 16 13 12 15 18 16 15 15 15 16 16
5 3 5 7 7 6 6 5 7 6 5 4 5 6 3 4 4 4 4 3 2 3 3 3 4 3 2 2 2 1 1 1 0 1 1 1 1 4 5 2 3 3 3 1 1 1 2 1 4 1 3 2 2 5 4 5 4 4 3 1 2 1 1 1 2 1 4 5 4 8 14 11 4 2 8 15 17 15 14 15 17 19 17 16 16 16 17 17
4 1 3 6 8 6 8 8 6 5 4 3 5 5 3 4 3 3 5 4 3 3 3 5 4 1 2 3 2 2 2 2 1 0 1 1 0 3 5 2 3 2 2 2 3 1 1 1 1 1 4 2 2 3 1 3 4 3 2 3 2 2 2 1 1 2 3 4 3 7 12 7 1 3 12 16 15 13 13 16 17 18 17 16 16 16 16 16
4 1 2 6 8 8 10 8 4 5 2 4 5 4 2 2 3 3 4 4 3 3 3 4 3 3 2 2 2 2 2 2 3 2 2 1 1 2 2 2 3 1 2 2 2 1 2 1 3 3 2 1 1 1 3 3 1 1 2 2 1 1 1 0 1 2 2 1 1 4 12 8 2 6 12 14 13 11 13 16 17 17 17 17 17 17 16 15
3 1 3 7 10 10 10 6 2 3 3 3 3 3 2 2 2 2 3 4 3 2 3 3 4 4 3 2 2 3 3 2 3 3 3 2 1 1 3 3 4 2 1 2 1 1 1 1 3 3 3 1 3 4 4 6 6 5 2 2 2 1 1 2 3 2 3 2 3 3 12 11 2 3 9 11 11 12 13 16 17 17 19 18 17 18 18 16
3 2 4 8 13 13 8 2 2 2 2 3 3 3 2 2 2 3 3 3 2 2 2 2 4 4 3 3 3 4 4 3 4 3 3 3 2 2 4 5 4 3 3 1 1 2 2 2 1 4 4 2 4 4 1 5 6 6 3 2 2 2 3 1 4 4 2 3 4 4 11 11 2 2 7 8 11 14 14 15 16 17 18 18 17 18 19 19
2 3 3 8 13 11 5 2 2 1 3 4 2 2 2 2 3 3 3 3 3 3 2 2 4 4 4 3 3 5 4 3 5 5 2 2 2 2 5 6 5 3 3 1 1 1 2 3 1 3 3 1 4 6 4 4 4 2 1 2 3 2 2 4 5 4 3 5 4 3 10 11 5 4 7 9 13 15 14 15 16 17 17 18 19 19 19 20
2 2 1 6 12 9 4 5 5 4 5 3 2 3 2 2 4 5 5 5 4 4 4 3 3 3 3 3 3 5 6 3 4 4 3 2 3 2 3 3 3 3 3 2 2 1 1 1 2 2 5 3 4 4 4 3 1 1 2 2 4 3 3 2 2 2 2 6 8 5 8 11 8 8 11 13 14 16 16 16 16 17 18 18 17 18 19 20
1 2 1 3 8 5 3 4 4 5 6 5 5 6 3 2 4 5 6 5 4 4 3 2 2 2 2 2 2 3 5 3 2 2 2 3 2 1 1 2 2 2 2 1 2 2 1 1 2 1 3 4 4 4 2 2 2 2 3 5 4 4 4 1 1 1 2 7 10 7 8 13 14 13 15 16 15 16 17 16 16 17 20 20 17 18 19 21
2 3 0 1 2 3 2 1 2 3 5 5 4 5 7 6 4 2 4 4 3 4 3 1 1 3 2 3 3 3 4 1 1 2 3 3 2 2 4 5 4 4 4 1 2 3 2 1 2 5 6 5 6 7 2 2 2 5 9 12 7 3 4 3 3 2 5 8 10 8 10 16 17 16 17 18 17 17 17 17 17 18 19 19 18 21 24 24
2 3 4 3 1 3 3 1 2 4 4 6 4 3 8 9 3 1 4 4 2 4 3 1 3 4 5 6 4 3 3 1 1 2 2 2 2 1 2 3 3 5 5 2 3 3 4 1 3 6 9 7 7 10 5 3 1 6 11 16 13 7 5 3 3 6 7 6 10 11 13 17 17 17 18 19 18 17 17 18 17 17 18 19 22 27 30 28
4 2 3 4 3 5 6 5 8 9 6 7 5 3 6 8 6 4 4 2 1 3 3 2 4 7 8 8 5 3 4 2 1 2 2 2 2 0 1 1 1 1 1 1 2 3 4 2 4 5 8 6 5 9 7 1 2 7 11 16 14 12 10 7 8 10 7 6 12 15 17 18 17 16 17 18 18 17 18 17 15 17 21 23 26 29 29 27
3 2 2 2 3 5 5 6 11 13 12 10 6 5 8 10 10 7 3 3 2 4 5 5 7 9 8 7 6 5 6 5 3 3 4 3 3 2 1 1 0 2 3 2 2 2 2 1 3 3 5 4 5 8 7 3 4 8 14 16 13 12 13 11 10 11 10 13 17 19 20 18 14 13 14 16 17 17 17 15 14 20 26 26 26 27 26 27
5 4 4 1 1 2 2 4 10 11 11 10 8 8 8 11 13 8 3 5 6 3 5 8 8 7 7 8 8 6 7 8 5 5 7 5 4 3 1 1 2 3 3 1 1 1 0 0 1 0 3 4 6 7 6 4 5 10 15 15 12 13 13 10 9 8 8 13 17 18 18 14 10 11 14 16 18 18 18 17 17 22 27 27 25 25 26 27
9 5 7 4 3 5 3 3 7 7 8 9 9 9 8 11 14 9 4 6 7 5 7 10 8 6 4 7 9 8 7 7 5 7 10 8 5 4 2 2 5 5 3 2 1 1 1 0 1 3 2 3 4 4 3 4 5 11 14 14 13 11 8 7 7 5 6 11 15 15 13 11 10 12 14 17 20 21 21 20 20 21 23 25 26 28 29 30
10 3 5 5 4 7 6 3 5 7 7 8 10 10 9 10 11 9 5 3 3 4 6 9 9 5 3 8 11 9 6 7 4 4 6 5 4 3 2 2 4 5 5 4 2 0 2 1 0 2 1 3 2 3 1 1 1 8 10 9 10 9 8 9 8 6 7 9 9 9 10 11 13 14 15 18 21 22 22 19 19 20 20 20 24 28 29 30
Wind_Direction
19 18 17 16 14 14 13 11 10 9 8 8 8 7 6 6 8 9 5 6 7 10 11 1 357 357 356 353 358 28 69 69 61 54 55 24 0 8 5 3 3 4 2 354 359 9 357 5 9 14 58 72 18 357 19 33 67 52 82 90 146 185 198 186 187 195 227 294 293 295 92 310 301 309 294 326 281 265 287 272 241 248 250 243 260 276 281 284
16 15 14 14 13 13 12 10 8 7 7 6 6 5 4 3 4 6 1 1 4 7 9 0 350 345 346 347 349 7 112 75 58 54 39 4 3 4 2 4 3 3 3 359 7 23 25 350 338 11 44 44 357 354 31 27 53 79 118 100 233 201 212 193 179 188 214 290 303 300 309 225 280 318 14 304 300 314 309 291 252 258 268 258 263 267 271 273
13 13 12 12 11 11 10 8 6 5 5 5 4 3 2 0 0 2 359 357 1 5 6 360 352 345 344 342 344 8 163 88 50 38 4 1 5 5 3 3 2 2 1 359 9 24 28 344 348 26 33 23 4 357 27 19 13 114 123 162 242 214 241 236 195 204 224 292 308 297 325 260 280 312 42 299 311 308 289 286 293 293 294 295 275 264 275 273
11 10 10 10 9 8 8 7 4 3 3 3 3 1 0 358 356 358 357 354 357 1 1 358 352 348 348 343 351 76 156 65 37 348 355 5 4 3 3 360 1 360 357 355 4 13 11 21 32 38 36 359 342 5 32 353 1 107 143 195 227 194 279 251 203 221 229 234 271 286 320 298 292 329 211 342 327 303 285 259 240 271 289 295 295 294 295 282
9 7 7 7 6 5 5 4 3 2 1 1 1 360 358 356 354 354 355 351 353 357 357 356 352 352 355 353 1 178 145 50 338 340 359 0 358 0 1 358 360 360 1 2 354 2 9 27 42 42 37 2 346 14 19 335 66 93 218 214 208 165 268 255 178 201 193 162 265 290 304 293 307 318 217 163 252 277 287 282 246 259 279 287 295 304 308 291
5 4 4 2 2 1 1 1 1 0 359 358 358 358 356 355 353 350 351 349 351 355 354 354 352 357 15 38 40 98 118 72 298 344 355 355 356 358 2 360 5 5 8 24 21 24 23 28 44 51 31 21 16 15 315 327 45 324 272 267 250 195 237 261 143 176 150 104 273 270 292 305 315 297 230 174 223 253 272 286 287 282 287 299 302 298 300 290
2 1 360 359 359 358 357 359 359 359 357 356 355 354 354 354 352 347 347 347 349 353 353 352 352 4 53 77 59 68 89 98 322 352 0 3 359 0 8 3 9 8 19 38 30 37 49 33 40 107 66 22 12 252 305 330 25 140 267 289 279 205 212 244 242 218 186 225 253 274 327 304 282 293 330 201 233 254 269 285 303 302 307 319 308 292 293 287
359 357 356 356 356 355 355 356 356 356 355 353 351 352 352 352 350 345 343 345 348 353 353 349 351 14 73 108 80 57 53 325 339 2 10 7 4 5 5 1 13 20 45 46 31 49 71 41 50 150 57 0 193 186 333 336 4 163 235 286 301 262 232 237 263 260 235 229 250 315 315 274 265 285 312 276 256 253 269 298 324 334 331 326 315 309 305 295
357 354 354 354 353 352 353 354 354 353 352 350 348 349 350 349 348 343 341 343 347 352 351 348 354 24 63 99 92 69 359 310 342 3 4 0 3 359 356 10 23 34 61 56 41 58 57 81 191 190 156 162 175 236 334 349 314 206 235 293 303 293 295 306 275 255 247 229 195 157 252 267 284 321 281 271 263 263 306 333 340 351 335 322 321 318 311 304
353 352 352 351 350 351 351 351 351 350 349 347 345 347 349 347 346 343 340 341 345 350 349 348 0 23 45 59 72 76 304 319 347 357 351 351 354 353 6 22 28 42 69 68 53 60 39 198 179 166 148 125 152 232 237 110 242 208 265 298 289 292 299 327 320 264 275 248 167 159 244 268 305 355 277 268 271 315 352 343 346 347 324 314 313 310 309 300
350 350 349 348 349 349 350 349 348 348 347 345 345 346 348 345 344 342 340 339 342 348 348 349 30 57 68 65 80 92 321 343 2 355 349 350 358 3 17 18 21 43 68 82 66 60 345 207 157 121 119 123 172 177 239 217 237 266 309 304 298 307 304 335 44 303 319 289 171 175 239 284 337 40 239 270 302 349 350 333 338 327 305 305 301 302 304 298
348 348 346 346 348 349 348 347 346 346 344 344 343 345 347 345 341 341 339 336 339 346 345 351 43 93 75 59 75 88 23 18 8 360 359 0 4 9 16 7 13 41 62 88 71 23 27 142 123 91 113 150 146 24 227 222 311 326 12 313 309 337 328 337 63 333 340 13 188 193 226 311 301 228 252 285 334 350 338 327 331 317 297 296 293 299 308 320
347 346 343 344 347 349 347 345 344 343 342 342 342 344 348 343 339 339 338 335 338 345 345 359 344 237 63 49 79 61 37 13 6 9 14 12 10 13 12 360 2 34 49 77 85 74 52 80 114 102 125 114 308 311 144 61 10 295 50 77 327 353 321 313 353 348 351 352 34 12 331 290 234 243 271 311 5 347 332 334 341 338 325 310 309 321 333 343
346 342 339 343 347 348 345 343 342 340 339 340 341 344 347 342 337 336 338 336 338 344 348 6 355 263 64 66 200 45 346 345 4 10 12 12 17 17 9 2 358 35 50 65 79 67 60 99 104 87 85 94 297 294 324 12 11 299 358 59 29 4 291 313 328 350 358 328 18 12 310 276 273 272 274 335 23 357 334 335 339 340 345 351 355 9 12 9
342 337 338 343 347 347 343 341 339 338 337 339 341 343 345 340 333 333 340 339 337 346 13 358 8 96 72 50 223 14 349 353 3 1 1 4 14 9 355 358 6 44 58 65 72 73 79 100 83 71 309 12 35 20 338 344 8 15 6 327 354 356 293 317 321 45 28 308 4 15 307 294 297 284 281 18 31 19 337 330 331 342 2 18 26 35 34 25
336 334 337 343 347 346 341 338 338 336 336 339 340 342 344 338 329 332 344 345 342 0 61 17 25 75 79 43 308 9 14 4 350 352 359 359 6 360 346 344 359 39 64 82 97 93 74 70 63 72 49 38 45 48 35 9 352 8 30 311 298 327 315 321 319 100 52 335 355 26 285 295 299 301 325 350 5 359 338 327 331 354 25 35 36 40 38 31
333 332 337 343 346 344 339 337 336 335 336 339 341 342 345 337 328 329 351 353 356 63 61 43 23 46 77 15 13 10 348 334 335 349 4 357 355 349 348 336 337 40 81 79 101 105 37 43 62 286 48 55 49 55 45 12 329 319 12 323 287 300 301 315 311 331 33 10 329 311 269 275 286 303 325 336 356 349 339 339 347 19 45 40 35 34 32 30
329 330 337 343 344 342 338 336 335 336 335 337 342 341 338 336 329 318 355 357 3 82 53 47 22 54 87 351 358 309 314 317 336 3 357 352 348 337 352 353 339 29 68 47 38 28 5 18 77 32 21 21 21 55 58 291 255 269 297 301 298 282 241 278 291 316 10 3 298 305 302 293 294 310 327 324 7 3 336 346 17 41 45 35 32 28 24 27
325 329 336 340 343 341 336 334 336 337 335 338 346 343 333 340 331 294 355 3 28 28 348 353 9 117 242 311 293 309 317 304 345 9 352 351 343 317 359 31 19 40 44 8 8 24 8 9 42 40 1 341 350 77 166 215 212 239 262 256 288 296 264 241 257 301 349 334 311 316 312 303 305 324 334 326 2 7 330 7 50 41 40 36 26 23 21 26
323 328 334 337 341 340 335 335 335 338 342 343 349 352 353 1 357 321 347 359 68 79 304 256 276 222 279 300 300 327 342 209 58 15 0 352 335 303 3 22 29 42 47 346 322 356 56 35 42 104 306 300 278 210 205 213 211 251 279 274 285 294 297 292 279 316 1 342 313 318 315 301 305 328 331 331 355 350 342 45 67 37 36 34 27 29 25 25
320 327 331 335 340 339 334 334 335 342 351 351 1 24 63 36 33 314 326 328 284 107 254 253 227 252 273 260 303 343 39 128 37 15 7 355 336 335 347 19 39 19 6 274 288 332 49 36 254 217 234 274 267 190 176 231 281 308 297 310 315 293 298 301 294 343 18 3 309 318 315 298 306 332 323 335 358 343 21 62 66 38 34 34 33 33 29 25
318 325 329 332 338 338 334 334 335 342 353 4 32 67 104 108 96 232 249 305 300 290 283 282 257 278 273 246 291 356 70 46 9 357 1 360 7 21 352 37 67 351 330 349 347 1 14 330 246 231 198 119 60 107 91 32 315 314 302 327 321 308 313 301 290 349 16 22 304 313 305 293 310 333 315 348 49 17 62 71 51 38 29 30 31 31 27 20
316 324 328 330 337 337 334 335 332 339 2 29 55 73 92 103 140 207 157 253 295 302 339 294 240 286 300 275 273 17 69 59 3 333 350 2 24 55 69 51 45 343 347 16 45 27 334 271 241 209 148 95 38 32 55 37 351 313 298 323 310 330 354 312 319 330 321 178 254 292 286 287 311 329 310 6 93 65 72 69 41 34 27 29 30 29 28 19
316 324 326 328 335 337 335 333 329 347 19 52 62 61 49 268 217 196 167 141 298 297 270 226 219 243 270 317 347 21 82 86 87 328 347 13 61 48 84 90 22 32 325 339 65 73 265 267 265 83 79 75 14 340 31 26 339 311 269 299 318 329 337 296 313 325 320 285 185 314 304 288 317 345 316 352 78 64 57 49 33 26 22 28 25 26 28 21
317 322 324 327 333 339 335 331 342 5 25 59 51 31 18 340 196 182 165 49 317 295 290 237 235 220 227 262 350 349 123 77 42 294 334 13 87 15 57 136 57 20 244 252 0 296 267 273 351 57 37 55 53 340 354 33 329 324 260 244 329 320 316 305 317 330 326 318 102 39 328 291 320 347 314 336 70 67 44 43 32 19 17 23 23 21 17 11
318 321 325 327 332 339 336 331 353 1 20 61 26 357 355 359 180 180 133 46 313 282 333 189 208 272 266 343 354 70 111 42 322 298 339 2 340 111 81 298 29 336 229 225 334 282 277 312 50 72 51 48 51 350 283 192 47 327 208 138 339 318 315 314 319 331 313 294 332 77 309 285 312 328 291 338 79 74 41 42 29 17 17 19 20 14 9 3
319 321 324 328 331 337 339 313 331 354 37 14 344 337 339 347 179 183 78 26 322 256 53 244 218 54 294 303 352 118 29 311 41 4 8 5 318 67 26 303 355 314 199 88 345 270 253 330 23 52 64 48 31 355 282 162 105 268 210 44 350 327 315 310 308 297 263 289 316 129 191 271 298 281 290 353 64 56 30 31 19 13 10 5 14 2 2 355
320 321 324 328 331 336 346 303 312 16 151 284 320 328 332 354 167 156 60 14 304 111 97 275 253 31 318 326 35 84 306 330 91 298 332 28 5 29 7 269 197 267 246 127 280 267 237 351 31 44 56 39 322 265 271 178 114 269 274 344 314 298 294 288 280 272 267 312 322 239 199 265 279 284 338 349 46 38 18 18 6 4 1 359 5 349 348 346
320 320 323 328 328 331 341 329 321 109 263 290 323 323 327 138 157 78 62 215 293 65 93 352 164 317 337 359 13 24 7 9 66 282 322 31 27 42 56 230 158 185 316 131 222 254 264 121 125 96 85 208 236 261 279 85 81 283 304 327 298 279 264 252 251 266 306 325 288 262 179 308 288 295 333 354 48 26 360 5 355 356 1 2 1 349 345 343
318 318 320 325 326 321 323 331 352 323 311 316 323 325 53 114 87 49 12 245 292 287 225 1 232 331 15 27 340 343 43 6 319 339 354 21 8 25 80 213 100 113 346 28 225 261 296 295 155 105 120 198 160 107 66 83 71 294 359 358 329 310 260 230 247 282 338 299 206 206 94 48 304 307 69 78 71 32 353 358 349 354 4 2 356 348 344 343
316 317 318 320 319 309 307 325 329 320 333 341 329 351 65 27 67 95 250 247 113 300 328 1 308 29 48 65 298 330 36 341 325 15 16 7 2 8 42 30 39 56 3 11 348 303 331 14 53 66 260 147 105 75 13 19 354 9 37 6 335 326 307 328 351 21 313 260 188 76 26 15 284 287 94 117 69 34 10 358 350 355 0 352 347 344 342 340
314 314 314 314 307 293 256 235 306 332 348 359 348 39 70 9 10 168 242 299 358 305 129 203 305 52 67 61 261 299 8 321 352 62 65 33 37 16 26 55 34 8 344 336 342 332 340 353 346 330 318 70 100 75 344 356 19 26 22 14 13 345 332 335 327 305 252 256 235 35 7 322 263 270 79 87 36 12 358 357 355 359 357 348 345 342 338 334
312 312 309 302 288 268 227 230 312 5 5 1 16 48 75 49 273 216 233 304 306 310 40 60 341 99 99 343 279 268 346 246 6 53 116 102 78 48 346 326 136 20 272 235 1 353 330 297 328 8 343 5 86 94 351 337 44 44 3 56 76 3 331 316 297 300 277 272 285 322 324 273 264 282 113 114 39 347 354 3 5 4 354 344 339 332 326 325
311 308 298 284 268 257 238 233 44 61 54 83 63 41 46 261 252 223 226 255 263 346 16 43 4 5 74 258 262 244 146 257 40 42 18 55 70 92 307 324 14 92 168 186 209 155 288 283 324 32 309 28 64 129 175 167 111 164 188 128 127 150 240 271 272 306 316 298 303 318 299 252 304 203 162 164 340 0 4 3 5 359 343 331 325 319 318 319
307 299 282 265 252 250 236 109 75 99 161 88 68 76 228 245 253 232 227 243 277 341 339 335 23 345 307 272 291 271 195 253 51 59 21 48 125 148 153 302 334 86 130 146 256 143 157 260 272 333 356 82 56 230 169 118 116 222 154 98 113 181 188 232 261 249 284 291 298 314 267 256 310 292 33 7 359 4 1 353 351 341 330 324 320 316 317 317
297 283 267 250 238 228 201 106 104 142 145 83 75 200 215 229 225 203 206 201 160 158 336 325 215 216 288 289 333 348 160 253 7 43 336 118 152 149 151 206 259 206 158 155 225 110 71 271 244 272 0 68 211 255 81 95 148 186 65 159 233 196 151 138 308 301 295 277 286 310 285 289 325 330 358 4 354 351 347 341 339 331 327 325 320 319 319 315
277 256 251 244 233 210 180 115 131 161 117 93 161 224 218 221 206 182 182 164 142 129 91 325 233 190 263 273 260 287 331 283 350 48 261 223 147 148 149 185 178 189 214 158 167 170 133 263 238 205 109 295 220 109 71 51 99 107 137 225 239 4 116 121 53 327 304 267 278 296 291 299 315 318 360 356 341 340 338 334 332 328 328 325 318 319 316 312
252 244 256 238 221 197 162 138 150 147 94 107 214 242 213 206 201 158 154 143 122 115 123 232 230 184 208 234 245 219 158 229 253 45 231 214 210 152 138 174 177 184 253 163 112 183 128 285 278 203 143 236 340 75 60 6 48 113 196 215 86 73 309 49 92 271 273 274 289 295 296 301 276 251 352 341 331 333 332 331 329 325 326 322 317 316 312 311
212 271 282 215 197 179 151 154 150 110 86 164 217 244 212 219 244 185 168 146 117 127 175 229 240 217 183 177 197 197 167 192 182 133 199 176 225 140 127 164 180 195 275 133 133 214 134 129 287 248 189 198 15 61 152 327 3 33 30 35 58 141 192 232 152 178 246 270 286 303 305 303 160 352 336 327 323 330 331 328 324 321 321 318 314 312 309 308
184 348 273 188 171 159 146 147 125 98 139 201 201 218 217 236 259 229 199 180 155 170 203 220 224 226 208 178 193 187 160 190 176 172 214 182 121 148 146 154 161 194 332 51 109 125 58 121 204 240 267 8 354 240 184 177 172 35 42 42 351 354 102 231 222 159 156 217 249 304 293 279 83 2 323 314 317 326 329 323 317 316 315 311 309 307 305 304
147 305 248 175 160 155 141 135 136 144 187 221 208 223 233 201 204 220 215 195 194 212 187 179 198 203 186 184 210 177 159 198 187 181 221 203 142 179 182 162 154 163 80 48 89 157 123 149 190 241 293 264 238 239 195 169 158 146 139 161 192 202 63 353 292 219 127 154 188 254 278 275 59 7 303 308 316 319 324 317 312 313 310 306 305 302 300 300
133 244 214 158 165 164 143 148 211 147 186 225 216 209 192 158 174 190 190 177 205 224 155 160 199 197 185 190 194 172 164 195 194 188 227 217 188 191 179 165 154 143 138 145 206 181 144 108 191 260 253 227 276 294 204 146 140 147 153 147 169 170 120 124 268 276 311 262 221 223 265 274 16 0 288 306 313 313 317 310 308 309 305 303 301 299 299 299
183 214 170 151 171 169 147 215 222 159 227 239 247 211 168 162 186 185 182 181 189 185 168 198 203 197 206 192 164 173 179 190 189 180 190 214 200 193 172 165 162 142 125 143 210 151 106 83 60 277 280 45 4 351 11 65 95 135 232 124 139 180 195 195 222 254 289 273 249 237 259 273 330 332 291 304 308 310 312 309 308 307 303 304 302 300 301 302
211 205 134 167 181 175 181 220 212 216 229 232 255 235 222 214 192 181 193 200 188 164 169 204 204 192 202 172 150 181 188 192 190 175 155 169 182 169 150 159 184 174 159 188 191 148 200 141 88 338 321 356 33 12 349 341 27 194 249 185 160 198 239 232 230 250 272 255 245 244 262 278 306 312 301 305 306 307 309 309 310 308 306 307 305 305 308 309
179 198 356 184 190 192 221 216 198 211 213 209 229 222 206 238 214 194 196 197 186 167 164 202 197 132 138 142 129 185 196 203 197 163 135 155 174 191 214 251 257 210 215 229 154 118 169 205 122 124 277 282 290 295 290 276 276 264 261 253 215 204 223 220 2 248 246 263 260 253 266 282 296 306 304 306 309 309 308 310 312 309 308 310 312 314 314 313
195 220 159 119 209 227 250 172 158 207 193 188 229 213 189 213 243 211 195 198 185 155 132 149 132 90 114 161 160 202 212 223 63 146 150 164 190 243 226 221 218 234 259 244 117 104 92 254 195 182 206 224 249 269 300 68 305 294 293 287 278 232 209 152 109 222 249 281 281 268 272 286 298 308 307 309 314 312 310 314 316 312 313 317 319 317 314 311
226 223 168 151 211 224 235 251 193 217 194 179 199 194 191 207 228 133 198 207 177 138 124 140 154 167 185 169 164 203 197 131 78 150 145 152 179 293 245 191 198 243 245 175 121 96 87 283 244 215 228 233 243 265 290 57 285 276 284 285 288 291 269 191 190 246 258 281 285 283 287 292 299 308 309 310 312 312 313 317 318 317 320 321 317 313 312 309
215 224 173 171 191 202 212 213 201 208 208 193 193 175 182 198 198 192 199 188 140 164 178 191 198 204 190 165 167 187 159 148 206 159 128 128 148 337 307 170 193 256 201 74 48 85 105 237 246 234 249 251 247 266 273 236 251 261 264 273 284 293 286 266 255 261 262 261 273 287 294 293 297 305 306 305 309 312 313 317 322 322 321 318 314 312 311 309
189 262 250 194 214 206 195 182 183 198 208 202 202 196 189 200 206 201 167 141 190 215 197 202 212 206 192 172 173 176 163 172 202 184 171 164 157 159 190 229 110 87 89 58 12 81 106 229 245 254 275 261 230 253 261 228 239 261 263 267 273 277 276 275 270 268 264 261 268 282 290 290 294 300 300 303 308 311 313 322 332 325 319 317 315 314 312 311
182 213 201 131 274 216 177 159 168 192 208 201 212 213 197 209 213 203 164 169 185 201 198 205 200 182 187 191 187 198 193 178 176 181 169 159 168 181 193 200 148 114 111 102 18 302 175 121 154 131 310 263 217 230 241 208 220 255 266 271 275 278 279 274 266 263 264 269 277 289 295 293 296 302 306 311 314 316 321 330 333 324 318 316 314 314 315 316
206 200 164 146 210 187 173 166 158 181 206 199 208 208 196 215 211 195 202 205 189 185 189 194 184 154 172 199 199 212 201 163 159 176 166 158 166 171 170 180 155 140 152 163 118 260 212 209 40 52 348 267 186 174 220 198 214 252 264 273 276 274 274 265 256 247 254 275 290 299 302 303 310 316 316 316 318 321 325 331 331 322 316 315 316 319 320 319
204 206 159 164 214 187 173 165 162 189 209 196 201 202 199 214 201 177 200 230 189 197 189 175 170 153 164 201 208 208 176 145 141 155 149 132 110 111 118 144 145 139 148 157 146 155 150 152 71 76 325 270 134 116 202 158 233 264 255 245 246 250 262 270 267 248 245 269 291 297 298 302 310 319 321 321 325 324 324 331 328 315 311 316 319 319 318 318